Location: Meadowbank Aerodrome
(65.0250°N, 96.0705°W)
Time: 03:24:13
(UTC-05:00)

Cosmos 2221 - Visible Passes

Search period start: 25 April 2014 00:00
Search period end: 05 May 2014 00:00
Orbit: 599 x 623 km, 82.5° (Epoch: 24 April)

Date Brightness Start Highest point End Pass type
(mag) Time Alt. Az. Time Alt. Az. Time Alt. Az.
25 Apr 4.8 00:07:55 10° N 00:11:10 20° NE 00:14:23 10° E visible
25 Apr 3.0 01:45:24 10° NNW 01:49:47 61° ENE 01:54:05 10° SSE visible
25 Apr 3.5 03:23:23 10° NNW 03:27:19 33° W 03:31:08 10° SSW visible
25 Apr 5.3 22:45:46 10° N 22:46:59 11° NNE 22:48:12 10° NE visible
26 Apr 4.5 00:22:43 10° N 00:26:20 24° NE 00:29:56 10° ESE visible
26 Apr 2.6 02:00:18 10° NNW 02:04:43 83° ENE 02:08:49 12° SSE visible
26 Apr 3.9 03:38:28 10° NNW 03:42:00 24° W 03:45:30 10° SW visible
26 Apr 5.2 23:00:19 10° N 23:02:19 13° NNE 23:04:18 10° ENE visible
27 Apr 4.1 00:37:32 10° N 00:41:28 31° NE 00:45:21 10° ESE visible
27 Apr 2.6 02:15:12 10° NNW 02:19:35 71° WSW 02:23:30 13° S visible
27 Apr 4.3 03:53:41 10° NW 03:56:37 18° W 03:59:33 10° WSW visible
27 Apr 5.0 23:15:01 10° N 23:17:36 15° NE 23:20:10 10° ENE visible
28 Apr 3.6 00:52:22 10° N 00:56:32 40° ENE 01:00:38 10° SE visible
28 Apr 2.9 02:30:09 10° NNW 02:34:24 51° W 02:38:11 13° S visible
28 Apr 4.8 23:29:45 10° N 23:32:50 18° NE 23:35:53 10° E visible
29 Apr 3.1 01:07:13 10° NNW 01:11:32 54° ENE 01:15:48 10° SE visible
29 Apr 3.4 02:45:08 10° NNW 02:49:09 36° W 02:52:52 11° SSW visible
29 Apr 4.5 23:44:32 10° N 23:48:01 23° NE 23:51:28 10° E visible
30 Apr 2.7 01:22:05 10° NNW 01:26:28 75° ENE 01:30:35 11° SSE visible
30 Apr 3.8 03:00:11 10° NNW 03:03:51 27° W 03:07:28 10° SW visible
30 Apr 4.2 23:59:19 10° N 00:03:09 28° NE 00:06:56 10° ESE visible
01 May 2.5 01:36:58 10° NNW 01:41:21 80° WSW 01:45:18 12° S visible
01 May 4.3 03:15:20 10° NW 03:18:28 20° W 03:21:36 10° SW visible
02 May 3.7 00:14:08 10° N 00:18:13 37° ENE 00:22:15 10° SE visible
02 May 2.8 01:51:53 10° NNW 01:56:10 57° W 02:00:01 12° S visible
03 May 3.2 00:28:58 10° NNW 00:33:14 49° ENE 00:37:26 10° SE visible
03 May 3.3 02:06:50 10° NNW 02:10:56 40° W 02:14:44 11° SSW visible
04 May 2.8 00:43:49 10° NNW 00:48:10 67° ENE 00:52:29 10° SSE visible
04 May 3.8 02:21:51 10° NNW 02:25:38 29° W 02:29:22 10° SSW visible
04 May 4.2 23:21:04 10° N 23:24:46 26° NE 23:28:26 10° ESE visible
